Gastonia, NC

4:57 AM EDT on June 25, 2017 (GMT -0400)
Gastonia Municipal

Weather History for KAKH - November, 2012

Change the Weather History Date:

Sunday, November 4, 2012

  Actual Average (KCLT) Record (KCLT)
Temperature  
Mean Temperature 54 °F -  
Max Temperature 61 °F 64 °F 83 °F (1961)
Min Temperature 48 °F 45 °F 22 °F (1966)
Degree Days  
Heating Degree Days 10    
Growing Degree Days 4 (Base 50)    
Moisture  
Dew Point 42 °F    
Average Humidity 65    
Maximum Humidity 86    
Minimum Humidity 48    
Precipitation  
Precipitation 0.00 in - - ()
Sea Level Pressure  
Sea Level Pressure 29.98 in    
Wind  
Wind Speed 3 mph (NE)    
Max Wind Speed 8 mph    
Max Gust Speed -    
Visibility 10 miles    
Events Rain    
Averages and records for this station are not official NWS values.
T = Trace of Precipitation, MM = Missing Value Source: NWS Daily Summary

Daily Weather History Graph

Daily Weather History Graph

Search for Another Location

Airport or City:

Trip Planner

Search our weather history database for the weather conditions in past years. The results will help you decide how hot, cold, wet, or windy it might be!

Date:

Astronomy

Nov. 04, 2012 Rise Set
Actual Time 6:49 AM EST 5:26 PM EST
Civil Twilight 6:22 AM EST 5:53 PM EST
Nautical Twilight 5:52 AM EST 6:23 PM EST
Astronomical Twilight 5:22 AM EST 6:52 PM EST
Moon 10:05 PM EST (11/4) 11:29 AM EST (11/4)
Length of Visible Light 11h 30m
Length of Day
10h 37m
Waning Gibbous, 72% of the Moon is Illuminated
Nov 4
Waning Gibbous
Nov 6
Last Quarter
Nov 13
New
Nov 20
First Quarter
Nov 28
Full

Hourly Weather History & Observations

Time (EST) Temp. Dew Point Humidity Pressure Visibility Wind Dir Wind Speed Gust Speed Precip Events Conditions
12:54 AM 48.0 °F 39.9 °F 74% 29.99 in 10.0 mi Calm Calm - N/A   Clear
1:54 AM 48.0 °F 39.9 °F 74% 29.98 in 10.0 mi Calm Calm - N/A   Clear
2:54 AM 48.9 °F 39.0 °F 69% 29.97 in 10.0 mi NE 5.8 mph - N/A   Clear
3:54 AM 48.9 °F 37.9 °F 66% 29.96 in 10.0 mi NNE 3.5 mph - N/A   Clear
4:54 AM 48.0 °F 37.9 °F 68% 29.97 in 10.0 mi NNE 5.8 mph - N/A   Clear
5:54 AM 48.0 °F 39.0 °F 71% 29.99 in 10.0 mi North 4.6 mph - N/A   Clear
7:54 AM 48.9 °F 37.9 °F 66% 30.01 in 10.0 mi NNE 5.8 mph - N/A   Clear
8:54 AM 52.0 °F 39.0 °F 61% 30.02 in 10.0 mi NE 6.9 mph - N/A   Clear
9:54 AM 55.0 °F 39.9 °F 57% 30.00 in 10.0 mi North 8.1 mph - N/A   Clear
10:54 AM 55.9 °F 39.9 °F 55% 30.01 in 10.0 mi North 4.6 mph - N/A   Clear
11:54 AM 59.0 °F 41.0 °F 51% 29.98 in 10.0 mi Variable 3.5 mph - N/A   Clear
12:54 PM 61.0 °F 41.0 °F 48% 29.96 in 10.0 mi NNE 4.6 mph - N/A   Clear
1:54 PM 61.0 °F 42.1 °F 50% 29.96 in 10.0 mi Calm Calm - N/A   Clear
2:54 PM 61.0 °F 43.0 °F 52% 29.95 in 10.0 mi ENE 4.6 mph - N/A   Clear
3:54 PM 61.0 °F 44.1 °F 54% 29.96 in 10.0 mi Calm Calm - N/A   Scattered Clouds
4:54 PM 59.0 °F 44.1 °F 58% 29.95 in 10.0 mi ENE 6.9 mph - N/A   Mostly Cloudy
5:54 PM 57.0 °F 44.1 °F 62% 29.94 in 10.0 mi NE 5.8 mph - 0.00 in Rain Light Rain
6:54 PM 52.0 °F 48.0 °F 86% 29.98 in 10.0 mi Calm Calm - 0.00 in   Scattered Clouds
7:54 PM 54.0 °F 46.9 °F 77% 29.98 in 10.0 mi NE 4.6 mph - N/A   Overcast
8:54 PM 54.0 °F 46.0 °F 75% 29.98 in 10.0 mi NE 5.8 mph - N/A   Overcast
9:54 PM 53.1 °F 45.0 °F 74% 29.99 in 10.0 mi NE 6.9 mph - N/A   Mostly Cloudy
10:54 PM 52.0 °F 45.0 °F 77% 29.99 in 10.0 mi NE 4.6 mph - N/A   Overcast